Station PSBC1 - 9415115 - Pittsburg (Suisun Bay), CA Image indicating link to RSS feed of recent meteorological observations for station PSBC1


Conditions at PSBC1 as of
(1:00 am PDT)
0800 GMT on 07/23/2024:
     

Click on the graph icon in the table below to see a time series plot of the last five days of that observation.

5-day plot - Wind Direction Wind Direction (WDIR): NW ( 320 deg true )
5-day plot - Wind Speed Wind Speed (WSPD): 15.0 kts
5-day plot - Wind Gust Wind Gust (GST): 18.1 kts
5-day plot - Atmospheric Pressure Atmospheric Pressure (PRES):29.76 in
5-day plot - Pressure Tendency Pressure Tendency (PTDY):+0.00 in ( Steady )
5-day plot - Air Temperature Air Temperature (ATMP): 74.1 °F
5-day plot - Wind Speed at 10 Meters Wind Speed at 10 meters (WSPD10M): 15.5 kts
5-day plot - Wind Speed at 20 Meters Wind Speed at 20 meters (WSPD20M): 17.5 kts
5-day plot -  Wind Speed, Wind Gust and Atmospheric Pressure Combined plot of Wind Speed, Gust, and Air Pressure
NOS Water Level Observation Network Water Level
Previous observations
TIME
(PDT)
5-day plot - Wind Direction
WDIR
 
5-day plot - Wind Speed
WSPD
kts
5-day plot - Wind Gust
GST
kts
5-day plot - Wave Height
WVHT
ft
5-day plot - Dominant Wave Period
DPD
sec
5-day plot - Average Wave Period
APD
sec
5-day plot - Mean Wave Direction
MWD
 
5-day plot - Atmospheric Pressure
PRES
in
5-day plot - Pressure Tendency
PTDY
in
5-day plot - Air Temperature
ATMP
°F
5-day plot - Water Temperature
WTMP
°F
5-day plot - Dew Point
DEWP
°F
5-day plot - Salinity
SAL
psu
5-day plot - Visibility
VIS
nmi
5-day plot - Tide (above MLLW)
TIDE
ft
2024-07-23 12:54 am NW 14.0 18.1----29.76- 74.3-----
2024-07-23 12:48 am NW 15.0 18.1----29.76- 74.3-----
2024-07-23 12:42 am NW 15.0 18.1----29.76- 74.5-----
2024-07-23 12:36 am NW 14.0 19.0----29.76- 74.7-----
2024-07-23 12:30 am NW 15.0 18.1----29.76- 74.7-----
2024-07-23 12:24 am NW 15.0 17.1----29.76- 74.7-----
2024-07-23 12:18 am NW 14.0 17.1----29.76- 75.2-----
2024-07-23 12:12 am NW 14.0 17.1----29.76- 75.6-----
2024-07-23 12:06 am NW 14.0 17.1----29.76- 75.7-----
2024-07-23 12:00 am NW 13.0 15.9----29.76+0.01 76.3-----
2024-07-22 11:54 pm NW 14.0 17.1----29.76- 76.8-----
2024-07-22 11:48 pm NW 13.0 15.9----29.76- 77.2-----
2024-07-22 11:42 pm NW 13.0 15.0----29.76- 77.2-----
2024-07-22 11:36 pmWNW 11.1 15.0----29.76- 77.0-----
2024-07-22 11:30 pm NW 12.0 14.0----29.76- 77.2-----
2024-07-22 11:24 pmWNW 9.9 13.0----29.76- 76.8-----
2024-07-22 11:18 pmWNW 9.9 13.0----29.76- 76.8-----
2024-07-22 11:12 pmWNW 9.9 14.0----29.76- 76.8-----
2024-07-22 11:06 pm NW 9.9 14.0----29.76- 76.8-----
2024-07-22 11:00 pm NW 12.0 14.0----29.76+0.02 77.2-----
2024-07-22 10:54 pm NW 11.1 14.0----29.76- 77.5-----
2024-07-22 10:48 pmWNW 8.9 14.0----29.76- 77.9-----
2024-07-22 10:42 pmWNW 8.9 12.0----29.76- 77.7-----
2024-07-22 10:36 pmWNW 8.9 12.0----29.76- 77.7-----
2024-07-22 10:30 pmWNW 8.9 12.0----29.76- 77.7-----
2024-07-22 10:24 pmWNW 8.9 12.0----29.76- 77.9-----
2024-07-22 10:18 pmWNW 8.9 11.1----29.76- 77.5-----
2024-07-22 10:12 pmWNW 8.9 12.0----29.76- 78.3-----
2024-07-22 10:06 pmWNW 8.9 13.0----29.76- 78.6-----
2024-07-22 10:00 pm NW 8.9 12.0----29.76+0.03 79.7-----
2024-07-22 09:54 pmWNW 9.9 15.0----29.76- 80.8-----
2024-07-22 09:48 pmWNW 9.9 13.0----29.76- 81.0-----
2024-07-22 09:42 pmWNW 9.9 13.0----29.76- 81.0-----
2024-07-22 09:36 pmWNW 11.1 13.0----29.76- 81.3-----
2024-07-22 09:30 pmWNW 11.1 13.0----29.75- 81.0-----
2024-07-22 09:24 pmWNW 9.9 14.0----29.76- 81.5-----
2024-07-22 09:18 pmWNW 9.9 13.0----29.75- 82.0-----
2024-07-22 09:12 pmWNW 9.9 12.0----29.75- 81.7-----
2024-07-22 09:06 pmWNW 9.9 12.0----29.75- 80.8-----
2024-07-22 09:00 pmWNW 11.1 14.0----29.75+0.02 81.9-----
2024-07-22 08:54 pmWNW 11.1 13.0----29.75- 81.7-----
2024-07-22 08:48 pmWNW 11.1 13.0----29.75- 80.6-----
2024-07-22 08:42 pmWNW 9.9 13.0----29.75- 80.4-----
2024-07-22 08:36 pmWNW 11.1 13.0----29.75- 80.4-----
2024-07-22 08:30 pmWNW 8.9 12.0----29.75- 79.7-----
2024-07-22 08:24 pmWNW 8.9 12.0----29.75- 79.7-----
2024-07-22 08:18 pmWNW 9.9 13.0----29.74- 80.2-----
2024-07-22 08:12 pmWNW 9.9 13.0----29.74- 80.4-----
2024-07-22 08:06 pm NW 8.9 13.0----29.74- 80.6-----
2024-07-22 08:00 pmWNW 8.9 13.0----29.74+0.00 81.1-----
2024-07-22 07:54 pmWNW 8.9 12.0----29.74- 81.3-----
2024-07-22 07:48 pmWNW 9.9 12.0----29.74- 81.5-----
2024-07-22 07:42 pmWNW 8.9 12.0----29.74- 81.9-----
2024-07-22 07:36 pmWNW 9.9 11.1----29.74- 82.0-----
2024-07-22 07:30 pmWNW 8.9 14.0----29.74- 82.0-----
2024-07-22 07:24 pmWNW 9.9 12.0----29.74- 82.2-----
2024-07-22 07:18 pmWNW 9.9 13.0----29.74- 82.2-----
2024-07-22 07:12 pmWNW 11.1 15.0----29.73- 82.4-----
2024-07-22 07:06 pm NW 12.0 15.0----29.73- 82.8-----
2024-07-22 07:00 pm NW 13.0 15.9----29.73-0.03 83.1-----
2024-07-22 06:54 pm NW 13.0 15.9----29.73- 83.3-----
2024-07-22 06:48 pm NW 11.1 15.0----29.73- 83.1-----
2024-07-22 06:42 pm NW 12.0 15.0----29.73- 84.0-----
2024-07-22 06:36 pm NW 12.0 14.0----29.73- 83.8-----
2024-07-22 06:30 pm NW 12.0 15.9----29.73- 84.6-----
2024-07-22 06:24 pm NW 13.0 17.1----29.73- 84.6-----
2024-07-22 06:18 pm NW 13.0 17.1----29.73- 84.6-----
2024-07-22 06:12 pm NW 14.0 17.1----29.73- 84.7-----
2024-07-22 06:06 pm NW 14.0 15.9----29.73- 84.4-----
2024-07-22 06:00 pm NW 14.0 17.1----29.73-0.04 84.0-----
2024-07-22 05:54 pm NW 14.0 17.1----29.73- 83.8-----
2024-07-22 05:48 pm NW 14.0 18.1----29.73- 84.0-----
2024-07-22 05:42 pm NW 15.0 18.1----29.73- 84.0-----
2024-07-22 05:36 pm NW 14.0 15.9----29.73- 84.2-----
2024-07-22 05:30 pm NW 13.0 15.9----29.73- 84.0-----
2024-07-22 05:24 pm NW 13.0 15.0----29.73- 82.9-----
2024-07-22 05:18 pm NW 11.1 15.0----29.73- 83.7-----
2024-07-22 05:12 pm NW 13.0 15.9----29.73- 84.0-----
2024-07-22 05:06 pm NW 11.1 13.0----29.74- 83.3-----
2024-07-22 05:00 pm NW 9.9 13.0----29.74-0.06 83.5-----
2024-07-22 04:54 pm NW 11.1 15.9----29.74- 84.2-----
2024-07-22 04:48 pm NW 12.0 14.0----29.74-------
2024-07-22 04:42 pm NW 12.0 15.0----29.74-------
2024-07-22 04:36 pm NW 12.0 15.0----29.75-------
2024-07-22 04:30 pm NW 12.0 15.9----29.75-------
2024-07-22 04:24 pm NW 13.0 15.0----29.75-------
2024-07-22 04:18 pm NW 12.0 15.9----29.75- 85.3-----
2024-07-22 04:12 pm NW 14.0 17.1----29.75- 85.3-----
2024-07-22 04:06 pm NW 13.0 17.1----29.75- 85.3-----
2024-07-22 04:00 pm NW 13.0 17.1----29.76-0.05 85.3-----
2024-07-22 03:54 pm NW 14.0 15.9----29.76- 84.9-----
2024-07-22 03:48 pm NW 13.0 17.1----29.76- 85.1-----
2024-07-22 03:42 pm NW 14.0 17.1----29.76- 84.9-----
2024-07-22 03:36 pm NW 13.0 15.9----29.76- 85.1-----
2024-07-22 03:30 pm NW 13.0 15.9----29.76- 84.7-----
2024-07-22 03:24 pm NW 12.0 15.0----29.76- 84.6-----
2024-07-22 03:18 pm NW 12.0 14.0----29.77- 84.6-----
2024-07-22 03:12 pm NW 12.0 14.0----29.77- 84.7-----
2024-07-22 03:06 pm NW 12.0 14.0----29.77- 84.4-----
2024-07-22 03:00 pm NW 11.1 14.0----29.78-0.04 84.2-----
2024-07-22 02:54 pm NW 11.1 14.0----29.78- 83.3-----
2024-07-22 02:48 pm NW 11.1 14.0----29.78- 83.8-----
2024-07-22 02:42 pm NW 11.1 14.0----29.78- 84.0-----
2024-07-22 02:36 pm NW 11.1 14.0----29.78- 83.7-----
2024-07-22 02:30 pm-------29.78-------
2024-07-22 02:24 pm-------29.78-------
2024-07-22 02:18 pm NW 11.1 13.0----29.79- 83.7-----
2024-07-22 02:12 pm NW 11.1 14.0----29.79- 83.7-----
2024-07-22 02:06 pm NW 8.9 12.0----29.79- 84.2-----
2024-07-22 02:00 pm NW 8.0 11.1----29.80-0.02------
2024-07-22 01:54 pm NW 8.9 12.0----29.80-------
2024-07-22 01:48 pm NW 8.9 12.0----29.80- 83.8-----
2024-07-22 01:42 pm NW 7.0 11.1----29.80- 83.1-----
2024-07-22 01:36 pm NW 7.0 9.9----29.80- 82.8-----
2024-07-22 01:30 pm NW 8.0 9.9----29.80- 82.2-----
2024-07-22 01:24 pm NW 8.0 11.1----29.80- 82.0-----
2024-07-22 01:18 pm NW 8.9 11.1----29.81- 81.3-----
2024-07-22 01:12 pm NW 8.9 12.0----29.81- 81.1-----
2024-07-22 01:06 pm NW 8.9 12.0----29.81- 80.4-----
2024-07-22 01:00 pm NW 9.9 13.0----29.81-0.01 79.7-----
2024-07-22 12:54 pm NW 9.9 14.0----29.81- 79.5-----
2024-07-22 12:48 pm NW 11.1 14.0----29.81-------
2024-07-22 12:42 pm NW 11.1 15.0----29.81-------
2024-07-22 12:36 pm NW 9.9 12.0----29.81-------
2024-07-22 12:30 pm NW 9.9 13.0----29.81- 79.0-----
2024-07-22 12:24 pm NW 9.9 13.0----29.81- 78.8-----
2024-07-22 12:18 pm NW 9.9 13.0----29.81- 78.4-----
2024-07-22 12:12 pm NW 9.9 13.0----29.81- 78.4-----
2024-07-22 12:06 pm NW 9.9 13.0----29.82- 78.3-----
2024-07-22 12:00 pm NW 9.9 13.0----29.81-0.01 78.4-----
2024-07-22 11:54 am NW 8.9 12.0----29.82- 78.6-----
2024-07-22 11:48 am NW 9.9 14.0----29.82- 79.2-----
2024-07-22 11:42 am NW 9.9 13.0----29.82- 78.3-----
2024-07-22 11:36 am NW 9.9 13.0----29.82- 77.9-----
2024-07-22 11:30 am NW 8.9 13.0----29.82- 77.7-----
2024-07-22 11:24 am NW 9.9 13.0----29.82- 77.4-----
2024-07-22 11:18 am NW 9.9 13.0----29.82- 77.0-----
2024-07-22 11:12 am NW 9.9 12.0----29.82- 76.5-----
2024-07-22 11:06 am NW 9.9 14.0----29.82- 76.1-----
2024-07-22 11:00 am NW 8.9 13.0----29.82+0.00 75.9-----
2024-07-22 10:54 am NW 9.9 13.0----29.82- 75.6-----
2024-07-22 10:48 am NW 8.9 13.0----29.82- 75.2-----
2024-07-22 10:42 am NW 9.9 13.0----29.82- 74.5-----
2024-07-22 10:36 am NW 9.9 13.0----29.82- 74.3-----
2024-07-22 10:30 am NW 9.9 13.0----29.82- 74.1-----
2024-07-22 10:24 am NW 8.9 13.0----29.82- 74.1-----
2024-07-22 10:18 am NW 9.9 14.0----29.82- 74.3-----
2024-07-22 10:12 amNNW 11.1 13.0----29.83- 73.8-----
2024-07-22 10:06 am NW 11.1 14.0----29.83- 73.2-----
2024-07-22 10:00 am NW 11.1 15.0----29.83+0.03 72.7-----
2024-07-22 09:54 am NW 9.9 14.0----29.83- 71.6-----
2024-07-22 09:48 am NW 11.1 15.0----29.83- 71.2-----
2024-07-22 09:42 am NW 11.1 15.0----29.83- 71.2-----
2024-07-22 09:36 am NW 11.1 14.0----29.83- 70.9-----
2024-07-22 09:30 am NW 13.0 15.9----29.83- 70.2-----
2024-07-22 09:24 am NW 13.0 15.9----29.82- 69.8-----
2024-07-22 09:18 am NW 13.0 17.1----29.82- 69.6-----
2024-07-22 09:12 am NW 13.0 18.1----29.82- 69.3-----
2024-07-22 09:06 am NW 12.0 17.1----29.82- 69.3-----
2024-07-22 09:00 am NW 11.1 15.9----29.82+0.03 69.4-----
2024-07-22 08:54 am NW 13.0 15.9----29.82- 68.9-----
2024-07-22 08:48 am NW 13.0 17.1----29.82- 68.5-----
2024-07-22 08:42 am NW 13.0 17.1----29.82- 68.7-----
2024-07-22 08:36 am NW 13.0 15.9----29.82- 68.2-----
2024-07-22 08:30 am NW 14.0 17.1----29.82- 68.4-----
2024-07-22 08:24 am NW 12.0 15.9----29.82- 68.4-----
2024-07-22 08:18 am NW 12.0 15.9----29.81- 68.4-----
2024-07-22 08:12 am NW 13.0 15.9----29.81- 67.8-----
2024-07-22 08:06 am NW 12.0 15.9----29.81- 67.6-----
2024-07-22 08:00 am NW 12.0 17.1----29.81+0.03 67.3-----
2024-07-22 07:54 am NW 12.0 15.9----29.81- 66.9-----
2024-07-22 07:48 am NW 13.0 15.9----29.81- 66.7-----
2024-07-22 07:42 am NW 13.0 17.1----29.81- 66.2-----
2024-07-22 07:36 am NW 14.0 18.1----29.81- 66.0-----
2024-07-22 07:30 am NW 13.0 18.1----29.81- 66.0-----
2024-07-22 07:24 am NW 13.0 18.1----29.80- 65.7-----
2024-07-22 07:18 am NW 13.0 17.1----29.80- 65.7-----
2024-07-22 07:12 am NW 15.0 18.1----29.80- 65.1-----
2024-07-22 07:06 am NW 15.0 18.1----29.80- 64.8-----
2024-07-22 07:00 am NW 14.0 18.1----29.80+0.02 64.9-----
2024-07-22 06:54 am NW 15.0 19.0----29.80- 64.4-----
2024-07-22 06:48 am NW 15.0 19.0----29.80- 64.6-----
2024-07-22 06:42 am NW 15.0 18.1----29.80- 64.6-----
2024-07-22 06:36 am NW 14.0 17.1----29.80- 64.4-----
2024-07-22 06:30 am NW 13.0 17.1----29.80- 64.2-----
2024-07-22 06:24 am NW 15.0 18.1----29.80- 64.0-----
2024-07-22 06:18 am NW 15.9 19.0----29.80- 63.9-----
2024-07-22 06:12 am NW 15.9 19.0----29.80- 63.9-----
2024-07-22 06:06 am NW 15.0 19.0----29.80- 64.0-----
2024-07-22 06:00 am NW 15.0 19.0----29.80+0.02 63.5-----
2024-07-22 05:54 am NW 15.0 18.1----29.80- 63.5-----
2024-07-22 05:48 am NW 15.0 19.0----29.80- 63.5-----
2024-07-22 05:42 am NW 15.0 19.0----29.79- 63.9-----
2024-07-22 05:36 am NW 17.1 19.0----29.79- 63.3-----
2024-07-22 05:30 am NW 15.9 19.0----29.79- 63.7-----
2024-07-22 05:24 am NW 14.0 19.0----29.79- 63.5-----
2024-07-22 05:18 am NW 15.0 19.0----29.79- 63.7-----
2024-07-22 05:12 am NW 14.0 19.0----29.79- 63.9-----
2024-07-22 05:06 am NW 14.0 19.0----29.79- 63.7-----
2024-07-22 05:00 am NW 15.9 20.0----29.79+0.00 63.5-----
2024-07-22 04:54 am NW 15.9 20.0----29.78- 63.3-----
2024-07-22 04:48 am NW 15.9 20.0----29.79- 63.3-----
2024-07-22 04:42 am NW 15.9 19.0----29.79- 63.5-----
2024-07-22 04:36 am NW 17.1 20.0----29.78- 63.7-----
2024-07-22 04:30 am NW 15.9 20.0----29.78- 63.9-----
2024-07-22 04:24 am NW 17.1 21.0----29.78- 64.0-----
2024-07-22 04:18 am NW 17.1 20.0----29.78- 64.2-----
2024-07-22 04:12 am NW 15.9 20.0----29.78- 63.7-----
2024-07-22 04:06 am NW 17.1 20.0----29.78- 63.7-----
2024-07-22 04:00 am NW 15.9 21.0----29.78+0.00 64.0-----
2024-07-22 03:54 am NW 15.0 20.0----29.78- 64.0-----
2024-07-22 03:48 am NW 15.0 19.0----29.78- 64.0-----
2024-07-22 03:42 am NW 14.0 18.1----29.78- 64.2-----
2024-07-22 03:36 am NW 15.0 18.1----29.78- 64.4-----
2024-07-22 03:30 am NW 15.9 19.0----29.78- 64.8-----
2024-07-22 03:24 am NW 15.0 18.1----29.78- 64.8-----
2024-07-22 03:18 amWNW 15.0 20.0----29.78- 65.1-----
2024-07-22 03:12 am NW 18.1 21.0----29.78- 64.6-----
2024-07-22 03:06 am NW 17.1 20.0----29.78- 64.8-----
2024-07-22 03:00 am NW 17.1 20.0----29.78-0.01 64.4-----
2024-07-22 02:54 am NW 15.9 19.0----29.78- 64.6-----
2024-07-22 02:48 am NW 17.1 21.0----29.78- 64.8-----
2024-07-22 02:42 am NW 18.1 21.0----29.78- 64.6-----
2024-07-22 02:36 am NW 17.1 21.0----29.78- 64.6-----
2024-07-22 02:30 am NW 17.1 20.0----29.78- 64.9-----
2024-07-22 02:24 am NW 18.1 21.0----29.78- 64.8-----
2024-07-22 02:18 am NW 17.1 20.0----29.78- 64.8-----
2024-07-22 02:12 am NW 17.1 21.0----29.78- 64.9-----
2024-07-22 02:06 am NW 18.1 20.0----29.78- 64.6-----
2024-07-22 02:00 am NW 18.1 21.0----29.78-0.01 64.8-----
2024-07-22 01:54 am NW 18.1 21.0----29.78- 64.9-----
2024-07-22 01:48 am NW 18.1 22.0----29.78- 64.9-----
2024-07-22 01:42 am NW 18.1 22.0----29.78- 64.6-----
2024-07-22 01:36 am NW 18.1 21.0----29.78- 64.8-----
2024-07-22 01:30 am NW 19.0 22.0----29.78- 64.8-----
2024-07-22 01:24 am NW 18.1 21.0----29.78- 64.6-----
2024-07-22 01:18 am NW 18.1 22.0----29.78- 64.4-----
2024-07-22 01:12 am NW 18.1 22.9----29.78- 64.4-----
2024-07-22 01:06 am NW 18.1 22.0----29.79- 64.4-----
2024-07-22 01:00 am NW 19.0 22.0----29.78+0.00 64.6-----
2024-07-22 12:54 am NW 19.0 22.9----29.79- 64.6-----